Location: Kershaw
(34.5481°N, 80.5823°W)
Time: 01:42:12
(UTC+00:00)

Altair - Pass Details

Date: 12 October 2022
Orbit: 1501 x 1682 km, 47.2° (Epoch: 05 December)

Event Time Altitude Azimuth Distance (km) Brightness Sun altitude
Exits shadow 10:50:15 - 293° (WNW) 4,110 9.1 -8.0°
Reaches altitude 10° 10:51:20 10° 296° (WNW) 3,814 9.0 -7.8°
Maximum altitude 11:00:19 39° 3° (N) 2,286 8.4 -6.0°
Drops below altitude 10° 11:09:35 10° 70° (ENE) 3,927 10.9 -4.1°
Sets 11:13:07 0° 78° (ENE) 4,926 11.8 -3.4°
